La Grange, TX

8:09 PM CST on November 15, 2019 (GMT -0600)
La Grange

Weather History for K3T5 - August, 2019

Change the Weather History Date:

Thursday, August 15, 2019

  Actual Average (KAUS) Record (KAUS)
Temperature  
Mean Temperature 88 °F -  
Max Temperature 99 °F 94 °F 104 °F (1956)
Min Temperature 77 °F 70 °F 62 °F (2004)
Cooling Degree Days 23    
Growing Degree Days 38 (Base 50)    
Moisture  
Dew Point 77 °F    
Average Humidity 75    
Maximum Humidity 100    
Minimum Humidity 44    
Precipitation  
Precipitation 0.00 in - - ()
Sea Level Pressure  
Sea Level Pressure 29.93 in    
Wind  
Wind Speed 0 mph (East)    
Max Wind Speed 4 mph    
Max Gust Speed -    
Visibility 8 miles    
Events Fog , Rain    
Averages and records for this station are not official NWS values.
T = Trace of Precipitation, MM = Missing Value Source: NWS Daily Summary

Daily Weather History Graph

Daily Weather History Graph

Search for Another Location

Airport or City:

Astronomy

Aug. 15, 2019 Rise Set
Actual Time 6:55 AM CDT 8:08 PM CDT
Civil Twilight 6:30 AM CDT 8:33 PM CDT
Nautical Twilight 6:00 AM CDT 9:03 PM CDT
Astronomical Twilight 5:29 AM CDT 9:34 PM CDT
Moon 8:36 PM CDT (8/15) 6:54 AM CDT (8/15)
Length of Visible Light 14h 03m
Length of Day
13h 13m
Full, 100% of the Moon is Illuminated
Aug 15
Full
Aug 23
Last Quarter
Aug 30
New
Sep 5
First Quarter
Sep 13
Full

Hourly Weather History & Observations

Time (CDT) Temp. Heat Index Dew Point Humidity Pressure Visibility Wind Dir Wind Speed Gust Speed Precip Events Conditions
12:15 AM 79.7 °F - 78.8 °F 97% 29.97 in 0.5 mi Calm Calm - N/A Fog Fog
12:35 AM 79.2 °F - 79.2 °F 100% 29.96 in 3.0 mi Calm Calm - N/A   Clear
12:55 AM 79.5 °F - 79.3 °F 99% 29.96 in 3.0 mi Calm Calm - N/A   Clear
1:15 AM 79.2 °F - 79.2 °F 100% 29.95 in 1.0 mi Calm Calm - N/A   Light Drizzle
1:35 AM 79.5 °F - 79.5 °F 100% 29.95 in 7.0 mi Calm Calm - N/A   Clear
1:55 AM 79.0 °F - 79.0 °F 100% 29.95 in 0.5 mi Calm Calm - N/A Rain Light Rain
2:15 AM 79.3 °F - 79.3 °F 100% 29.94 in 10.0 mi Calm Calm - N/A   Clear
2:55 AM 78.8 °F - 78.8 °F 100% 29.96 in 10.0 mi Calm Calm - N/A   Clear
3:15 AM 78.8 °F - 78.8 °F 100% 29.96 in 10.0 mi Calm Calm - N/A   Clear
3:35 AM 78.6 °F - 78.6 °F 100% 29.95 in 10.0 mi Calm Calm - N/A   Clear
3:55 AM 78.8 °F - 78.8 °F 100% 29.96 in 10.0 mi Calm Calm - N/A   Clear
4:15 AM 78.6 °F - 78.6 °F 100% 29.96 in 10.0 mi Calm Calm - N/A   Clear
4:35 AM 78.1 °F - 78.1 °F 100% 29.96 in 10.0 mi Calm Calm - N/A   Clear
4:55 AM 77.9 °F - 77.9 °F 100% 29.96 in 10.0 mi Calm Calm - N/A   Clear
5:15 AM 77.9 °F - 77.9 °F 100% 29.97 in 10.0 mi Calm Calm - N/A   Clear
5:35 AM 77.4 °F - 77.4 °F 100% 29.97 in 10.0 mi Calm Calm - N/A   Clear
5:55 AM 77.2 °F - 77.2 °F 100% 29.97 in 10.0 mi Calm Calm - N/A   Clear
6:15 AM 77.2 °F - 77.2 °F 100% 29.97 in 10.0 mi Calm Calm - N/A   Mostly Cloudy
6:35 AM 77.4 °F - 77.4 °F 100% 29.98 in 10.0 mi Calm Calm - N/A   Overcast
6:55 AM 77.5 °F - 77.5 °F 100% 29.98 in 10.0 mi Calm Calm - N/A   Mostly Cloudy
7:15 AM 77.4 °F - 77.4 °F 100% 29.98 in 10.0 mi Calm Calm - N/A   Scattered Clouds
7:35 AM 77.9 °F - 77.9 °F 100% 29.98 in 10.0 mi Calm Calm - N/A   Mostly Cloudy
7:55 AM 79.0 °F - 79.0 °F 100% 29.98 in 10.0 mi Calm Calm - N/A   Scattered Clouds
8:15 AM 79.9 °F - 78.6 °F 96% 29.98 in 10.0 mi Calm Calm - N/A   Scattered Clouds
8:35 AM 80.6 °F 88.1 °F 78.8 °F 94% 29.98 in 10.0 mi Calm Calm - N/A   Mostly Cloudy
8:55 AM 82.0 °F 91.6 °F 78.8 °F 90% 29.99 in 10.0 mi Calm Calm - N/A   Mostly Cloudy
9:35 AM 84.0 °F 96.4 °F 79.3 °F 86% 29.99 in 10.0 mi Calm Calm - N/A   Clear
9:55 AM 84.6 °F 97.7 °F 79.5 °F 85% 30.00 in 0.5 mi Calm Calm - N/A   Haze
10:15 AM 86.5 °F 101.5 °F 79.7 °F 80% 30.00 in 0.2 mi Calm Calm - N/A Rain Light Rain
10:35 AM 87.8 °F 102.5 °F 79.2 °F 75% 30.00 in 0.2 mi Calm Calm - N/A Rain Light Rain
10:55 AM 87.6 °F 102.0 °F 79.0 °F 75% 30.00 in 2.5 mi Calm Calm - N/A   Light Drizzle
11:15 AM 89.1 °F 103.2 °F 78.3 °F 70% 30.00 in 1.5 mi Calm Calm - N/A   Haze
11:35 AM 90.7 °F 103.8 °F 76.8 °F 64% 29.99 in 4.0 mi Calm Calm - N/A   Haze
11:55 AM 91.6 °F 103.6 °F 75.7 °F 60% 29.98 in 10.0 mi Calm Calm - N/A   Scattered Clouds
12:15 PM 93.2 °F 105.7 °F 75.7 °F 57% 29.98 in 10.0 mi Calm Calm - N/A   Scattered Clouds
12:35 PM 93.0 °F 106.0 °F 76.1 °F 58% 29.97 in 7.0 mi Calm Calm - N/A   Scattered Clouds
12:55 PM 92.8 °F 104.8 °F 75.6 °F 57% 29.96 in 7.0 mi Calm Calm - N/A   Scattered Clouds
1:15 PM 93.9 °F 104.7 °F 74.7 °F 53% 29.95 in 10.0 mi Calm Calm - N/A   Clear
1:35 PM 94.5 °F 106.0 °F 74.7 °F 53% 29.95 in 10.0 mi Calm Calm - N/A   Clear
1:55 PM 95.4 °F 106.8 °F 74.7 °F 51% 29.94 in 7.0 mi Calm Calm - N/A   Clear
2:15 PM 96.4 °F 108.7 °F 75.0 °F 50% 29.93 in 7.0 mi Calm Calm - N/A   Clear
2:35 PM 97.0 °F 107.7 °F 73.9 °F 47% 29.92 in 10.0 mi Calm Calm - N/A   Clear
2:55 PM 98.8 °F 111.3 °F 75.0 °F 46% 29.91 in 10.0 mi Calm Calm - N/A   Clear
3:15 PM 97.2 °F 108.2 °F 73.6 °F 47% 29.90 in 1.2 mi Calm Calm - N/A   Haze
3:35 PM 98.6 °F 110.0 °F 74.1 °F 45% 29.89 in 0.5 mi Calm Calm - N/A   Haze
3:55 PM 97.9 °F 110.7 °F 75.2 °F 48% 29.88 in 10.0 mi Calm Calm - N/A   Scattered Clouds
4:15 PM 98.2 °F 110.0 °F 74.3 °F 46% 29.87 in 0.2 mi Calm Calm - N/A   Haze
4:35 PM 99.0 °F 111.8 °F 75.0 °F 46% 29.87 in 10.0 mi NE 3.5 mph - N/A   Scattered Clouds
4:55 PM 99.0 °F 111.8 °F 75.2 °F 46% 29.87 in 10.0 mi East 3.5 mph - N/A   Scattered Clouds
5:15 PM 98.6 °F 110.0 °F 73.6 °F 45% 29.86 in 7.0 mi Calm Calm - N/A   Clear
5:35 PM 98.4 °F 108.8 °F 73.2 °F 44% 29.86 in 10.0 mi Calm Calm - N/A   Clear
5:55 PM 99.0 °F 110.1 °F 73.6 °F 44% 29.86 in 10.0 mi Calm Calm - N/A   Mostly Cloudy
6:15 PM 97.2 °F 108.2 °F 73.9 °F 47% 29.86 in 7.0 mi Calm Calm - N/A   Scattered Clouds
6:35 PM 96.4 °F 107.2 °F 73.8 °F 48% 29.86 in 10.0 mi Calm Calm - N/A   Clear
6:55 PM 97.0 °F 107.7 °F 73.6 °F 47% 29.86 in 10.0 mi Calm Calm - N/A   Clear
7:15 PM 95.7 °F 107.7 °F 75.0 °F 51% 29.86 in 10.0 mi ESE 3.5 mph - N/A   Scattered Clouds
7:35 PM 93.9 °F 106.9 °F 75.9 °F 56% 29.87 in 10.0 mi Calm Calm - N/A   Clear
7:55 PM 92.5 °F 105.3 °F 76.1 °F 59% 29.87 in 10.0 mi Calm Calm - N/A   Clear
8:15 PM 91.2 °F 103.3 °F 75.9 °F 61% 29.87 in 10.0 mi Calm Calm - N/A   Clear
8:35 PM 90.5 °F 102.1 °F 76.1 °F 62% 29.87 in 10.0 mi Calm Calm - N/A   Clear
8:55 PM 89.8 °F 102.1 °F 76.8 °F 65% 29.88 in 10.0 mi Calm Calm - N/A   Clear
9:15 PM 89.1 °F 100.8 °F 76.3 °F 66% 29.88 in 10.0 mi Calm Calm - N/A   Clear
9:35 PM 87.6 °F 100.3 °F 77.5 °F 72% 29.89 in 10.0 mi Calm Calm - N/A   Clear
9:55 PM 86.7 °F 98.3 °F 77.0 °F 73% 29.89 in 10.0 mi Calm Calm - N/A   Clear
10:15 PM 87.1 °F 99.3 °F 77.4 °F 73% 29.90 in 10.0 mi Calm Calm - N/A   Clear
10:35 PM 84.7 °F 97.4 °F 79.0 °F 83% 29.91 in 10.0 mi Calm Calm - N/A   Clear
10:55 PM 85.1 °F 96.2 °F 77.7 °F 78% 29.91 in 10.0 mi Calm Calm - N/A   Mostly Cloudy
11:15 PM 86.7 °F 97.8 °F 76.8 °F 72% 29.92 in 10.0 mi Calm Calm - N/A   Scattered Clouds
11:35 PM 85.1 °F 95.8 °F 77.0 °F 77% 29.93 in 10.0 mi Calm Calm - N/A   Clear
11:55 PM 84.4 °F 94.6 °F 77.2 °F 79% 29.93 in 10.0 mi Calm Calm - N/A   Clear